Flag for Iran Weather past 2 weeks in Esfahãn, Iran

Now
66 °F

Clear.


Feels Like: 66 °F
Forecast: 58 / 90 °F
Wind: 12 mph from West

Location: Esfahan

Current Time: Sep 17, 2014 at 2:06:39 AM

Latest Report: Sep 17, 2014 at 1:30 AM


Visibility: 10 mi

Pressure: 29.95 "Hg

Humidity: 22%

Dew point: 27 °F

Location of EsfahãnLocation

Historic Weather in Esfahãn — Graph

°F

Esfahãn temperature yesterday

Maximum temperature yesterday: 91 °F (at 3:00 PM)
Minimum temperature yesterday: 48 °F (at 5:30 AM)
Average temperature yesterday: 73 °F

Past Weeks' High & Low Weather Summary

 TemperatureHumidityPressure
High97 °F (Sep 5, 3:30 PM)42% (Sep 7, 7:30 AM)30.12 "Hg (Sep 7, 7:30 AM)
Low48 °F (Sep 3, 6:00 AM)4% (Sep 10, 5:30 PM)29.77 "Hg (Sep 5, 5:00 PM)
Average77 °F15%29.97 "Hg
* Reported Sep 2 12:30 AM — Sep 17 1:00 AM, Esfahãn, Weather by CustomWeather, © 2014

Note: Actual official high and low records may vary slightly from our data, if they occured in-between our weather recording intervals... More about our weather records

Advertising

Esfahãn weather history for previous 24 hours

 ConditionsComfort  
Time TempWeatherWind HumidityBarometerVisibility
1:00 AM
Sep 17
68 °FClear.14 mph17%29.92 "Hg10 mi
12:30 AM72 °FClear.14 mph16%29.92 "Hg10 mi
12:00 AM72 °FClear.12 mph16%29.92 "Hg10 mi
11:30 PM
Sep 16
70 °FClear.12 mph16%29.92 "Hg10 mi
11:00 PM75 °FClear.12 mph13%29.92 "Hg10 mi
10:30 PM75 °FClear.14 mph13%29.92 "Hg10 mi
10:00 PM77 °FClear.16 mph12%29.92 "Hg10 mi
9:30 PM75 °FClear.14 mph14%29.89 "Hg10 mi
9:00 PM75 °FClear.14 mph14%29.89 "Hg10 mi
8:30 PM72 °FSunny.12 mph15%29.89 "Hg10 mi
8:00 PM77 °FPassing clouds.9 mph12%29.86 "HgN/A
7:30 PM82 °FPassing clouds.12 mph11%29.86 "HgN/A
7:00 PM84 °FPassing clouds.12 mph10%29.86 "HgN/A
6:30 PM90 °FPassing clouds.12 mph9%29.86 "HgN/A
6:00 PM91 °FScattered clouds.16 mph8%29.86 "HgN/A
5:30 PM91 °FScattered clouds.14 mph8%29.86 "HgN/A
5:00 PM91 °FScattered clouds.9 mph8%29.86 "Hg5 mi
4:30 PM91 °FScattered clouds.9 mph8%29.86 "Hg5 mi
4:00 PM91 °FPassing clouds.12 mph8%29.86 "Hg4 mi
3:30 PM91 °FPassing clouds.7 mph8%29.86 "Hg4 mi
3:00 PM91 °FSunny.12 mph8%29.89 "Hg4 mi
2:30 PM90 °FSunny.7 mph8%29.89 "Hg4 mi
2:00 PM88 °FSunny.No wind8%29.92 "Hg4 mi
1:30 PM90 °FSunny.9 mph8%29.92 "Hg4 mi
1:00 PM88 °FHaze.5 mph8%29.95 "Hg3 mi
12:30 PM88 °FHaze.5 mph7%29.95 "Hg3 mi
12:00 PM84 °FHaze.7 mph9%29.98 "Hg3 mi
11:30 AM82 °FHaze.7 mph9%29.98 "Hg3 mi
11:00 AM77 °FSunny.9 mph11%29.98 "Hg3 mi
10:30 AM75 °FSunny.7 mph11%29.98 "Hg3 mi
10:00 AM70 °FSunny.7 mph15%29.98 "Hg3 mi
9:30 AM68 °FSunny.7 mph16%29.98 "Hg3 mi
8:55 AM64 °FSunny.5 mph16%29.98 "Hg2 mi
8:30 AM61 °FSunny.5 mph19%29.98 "Hg2 mi
8:00 AM57 °FClear.5 mph20%29.95 "Hg2 mi
7:30 AM55 °FClear.7 mph24%29.95 "Hg1 mi
7:00 AM54 °FClear.9 mph28%29.95 "Hg1 mi
6:30 AM54 °FClear.9 mph28%29.95 "Hg1 mi
6:00 AM52 °FClear.9 mph26%29.95 "Hg2 mi
5:30 AM48 °FClear.9 mph37%29.92 "Hg10 mi
5:00 AM52 °FClear.9 mph26%29.92 "Hg10 mi
4:30 AM54 °FClear.9 mph24%29.92 "Hg10 mi
4:00 AM54 °FClear.No wind19%29.92 "Hg10 mi
3:30 AM55 °FClear.5 mph15%29.92 "Hg10 mi
3:00 AM59 °FClear.5 mph17%29.92 "Hg10 mi
2:30 AM59 °FClear.7 mph14%29.92 "Hg10 mi
2:00 AM63 °FClear.7 mph12%29.92 "Hg10 mi
Weather by CustomWeather, © 2014

See weather overviewHow to use our weather pages